CHINASAT 10 (ZX 10)

Last updated on Aug. 3, 2020, 5:32 a.m. UTC

1 37677U 11026A   20215.76160586 -.00000371  00000-0  00000-0 0  9991
2 37677   0.0675 252.9043 0004617 269.2457 174.2941  1.00275820 33456
UTC
Height (km)
Latitude
Longitude
Inclination
Orbital Period
UTC large
Height (km)
Speed (km/s)
/
Latitude / Longitude
Inclination (degrees)
Orbital Period (minutes)
Azimuth
Elevation
Range (km)
Doppler Factor
iOS Compass Heading
iOS Angle

Next 30 passes for location: Hong Kong

Rise time Rise Azimuth (degrees) Set time Set Azimuth (degrees) Duration Max altitude (degrees)

No matching passes for this satellites